This is the latest recevied weather packets stored in our database for station/object AI5KP-13. If no packets are shown the sender has not sent any weather packets the latest 10 day(s).
| Time | Temp. | Humidity | Pressure | Rain* | Wind** | Luminosity | Snow |
|---|---|---|---|---|---|---|---|
| 1777418434 | 18.33° C | 95% | 1011 hPa | 0 mm | - | 41 W/m² | - |
| 1777418130 | 18.33° C | 95% | 1010.7 hPa | 0 mm | - | 50 W/m² | - |
| 1777417827 | 18.33° C | 95% | 1010.7 hPa | 0 mm | - | 69 W/m² | - |
| 1777417527 | 18.33° C | 95% | 1010.3 hPa | 0 mm | - | 235 W/m² | - |
| 1777417224 | 17.78° C | 95% | 1009.8 hPa | 3.05 mm | - | 266 W/m² | - |
| 1777416920 | 17.22° C | 95% | 1009.7 hPa | 10.16 mm | - | 220 W/m² | - |
| 1777416615 | 17.22° C | 95% | 1009.7 hPa | 11.94 mm | - | 47 W/m² | - |
| 1777416311 | 17.22° C | 95% | 1011.2 hPa | 6.1 mm | - | 14 W/m² | - |
| 1777416010 | 17.22° C | 95% | 1010.1 hPa | 4.83 mm | - | 9 W/m² | - |
| 1777415706 | 17.22° C | 95% | 1009.3 hPa | 22.86 mm | - | 9 W/m² | - |
| 1777415402 | 17.22° C | 95% | 1009.2 hPa | 19.81 mm | - | 7 W/m² | - |
| 1777415101 | 17.78° C | 95% | 1010.6 hPa | 1.78 mm | - | 2 W/m² | - |
| 1777414796 | 17.78° C | 95% | 1010 hPa | 4.32 mm | - | 2 W/m² | - |
| 1777414493 | 17.78° C | 95% | 1009.3 hPa | 33.53 mm | - | 5 W/m² | - |
| 1777414192 | 17.78° C | 95% | 1009.3 hPa | 56.39 mm | - | 5 W/m² | - |
| 1777413887 | 17.78° C | 95% | 1009.6 hPa | 51.56 mm | - | 2 W/m² | - |
| 1777413583 | 18.33° C | 94% | 1010 hPa | 7.87 mm | - | 1 W/m² | - |
| 1777413279 | 19.44° C | 93% | 1005.2 hPa | 0 mm | - | 2 W/m² | - |
| 1777412975 | 20° C | 91% | 1007.2 hPa | 0 mm | - | 4 W/m² | - |
| 1777412673 | 20° C | 91% | 1007.9 hPa | 0 mm | - | 9 W/m² | - |
| 1777412372 | 20.56° C | 91% | 1008.2 hPa | 0 mm | - | 15 W/m² | - |
| 1777412067 | 20.56° C | 90% | 1008.3 hPa | 0 mm | - | 16 W/m² | - |
| 1777411761 | 21.11° C | 90% | 1008.7 hPa | 0 mm | - | 35 W/m² | - |
| 1777411456 | 21.67° C | 89% | 1008.5 hPa | 0 mm | - | 41 W/m² | - |
| 1777411150 | 22.22° C | 88% | 1008.8 hPa | 0 mm | - | 76 W/m² | - |
* Rain latest hour (hover to see other rain measurements)
** Current wind speed in m/s (hover to see current wind gust speed)